Regional Weather Roundup
Issued by NWS

Home | Current Version | Previous Version | Graphics & Text | Print | Product List | Glossary On
Versions: 1 2 3 4 5 6 7 8 9 10 11 12 13 14 15 16 17 18 19 20 21 22 23 24 25 26 27 28 29 30 31 32 33 34 35 36 37 38 39 40 41 42 43 44 45 46 47 48 49 50
000
ASUS43 KFSD 240002
RWRSD

WEATHER ROUNDUP FOR SOUTH DAKOTA
NATIONAL WEATHER SERVICE SIOUX FALLS SD
700 PM CDT WED APR 23 2014

NOTE: "FAIR" INDICATES FEW OR NO CLOUDS BELOW 12,000 FEET WITH NO
SIGNIFICANT WEATHER AND/OR OBSTRUCTIONS TO VISIBILITY.


SDZ001>005-009-010-012>017-240100-
NORTHWEST AND NORTH CENTRAL SOUTH DAKOTA

CITY           SKY/WX    TMP DP  RH WIND       PRES   REMARKS
BUFFALO          N/A     55  32  41 W25G33    29.64R
FAITH            N/A     58  38  47 NW22      29.66R
MOBRIDGE       CLOUDY    57  41  55 NW21      29.60R
$$

SDZ012>016-024>037-041>051-057-063-072>074-240100-
SOUTHWEST AND SOUTH CENTRAL SOUTH DAKOTA

CITY           SKY/WX    TMP DP  RH WIND       PRES   REMARKS
RAPID CTY ARPT PTSUNNY   57  36  45 N25G37    29.65R
PIERRE         MOSUNNY   60  42  51 NW32G45   29.58R
CUSTER         MOSUNNY   51  20  29 NW13G25   29.71R
PHILIP         CLOUDY    57  39  51 N26G36    29.64R
PINE RIDGE     CLOUDY    55  39  54 N17       29.68R
WINNER         MOCLDY    74  37  26 NW14      29.54R
$$

SDZ004>011-016>023-039-040-240100-
NORTHEAST SOUTH DAKOTA

CITY           SKY/WX    TMP DP  RH WIND       PRES   REMARKS
ABERDEEN       CLOUDY    49  43  80 E24G32    29.60F
WATERTOWN      CLOUDY    48  38  68 SE25G36   29.67F
SISSETON         N/A     42  37  82 SE20G30   29.73F
$$

SDZ017-020-022-023-036>040-048>070-240100-
SOUTHEAST SOUTH DAKOTA

CITY           SKY/WX    TMP DP  RH WIND       PRES   REMARKS
SIOUX FALLS    PTSUNNY   59  41  51 SE23G38   29.64R
HURON          CLOUDY    67  42  40 SE18G28   29.55R
CHAMBERLAIN      N/A     73  46  38 NW8       29.52R
MITCHELL       PTSUNNY   68  45  43 SE24G35   29.55R
YANKTON        MOSUNNY   64  43  45 SE21G35   29.59R
$$

ABBREVIATIONS USED IN REMARKS
   TC - TEMPERATURE IN CELSIUS
  WCI - WIND CHILL INDEX
   HX - HEAT INDEX
  VSB - VISIBILITY




USA.gov is the U.S. government's official web portal to all federal, state and local government web resources and services.